Fremont, MI

7:10 AM EDT on October 17, 2019 (GMT -0400)
Fremont

Weather History for KFFX - August, 2019

Change the Weather History Date:

Friday, August 2, 2019

  Actual Average (WUND) Record (WUND)
Temperature  
Mean Temperature 68 °F -  
Max Temperature 83 °F - - (-1)
Min Temperature 53 °F - - (-1)
Cooling Degree Days 3    
Growing Degree Days 18 (Base 50)    
Moisture  
Dew Point 53 °F    
Average Humidity 62    
Maximum Humidity 100    
Minimum Humidity 29    
Precipitation  
Precipitation 0.00 in - - ()
Sea Level Pressure  
Sea Level Pressure 30.15 in    
Wind  
Wind Speed 1 mph (NW)    
Max Wind Speed 12 mph    
Max Gust Speed 20 mph    
Visibility 10 miles    
Events      
Averages and records for this station are not official NWS values.
T = Trace of Precipitation, MM = Missing Value Source: NWS Daily Summary

Daily Weather History Graph

Daily Weather History Graph

Search for Another Location

Airport or City:

Astronomy

Aug. 02, 2019 Rise Set
Actual Time 6:34 AM EDT 9:05 PM EDT
Civil Twilight 6:02 AM EDT 9:37 PM EDT
Nautical Twilight 5:21 AM EDT 10:17 PM EDT
Astronomical Twilight 4:35 AM EDT 11:03 PM EDT
Moon 8:13 AM EDT (8/2) 10:30 PM EDT (8/2)
Length of Visible Light 15h 35m
Length of Day
14h 30m
Waxing Crescent, 4% of the Moon is Illuminated
Aug 2
Waxing Crescent
Aug 7
First Quarter
Aug 15
Full
Aug 23
Last Quarter
Aug 30
New

Hourly Weather History & Observations

Time (EDT) Temp. Dew Point Humidity Pressure Visibility Wind Dir Wind Speed Gust Speed Precip Events Conditions
12:18 AM 59.7 °F 51.4 °F 74% 30.18 in 10.0 mi Calm Calm - N/A   Clear
12:37 AM 58.6 °F 51.3 °F 76% 30.18 in 10.0 mi Calm Calm - N/A   Clear
12:55 AM 57.4 °F 51.4 °F 81% 30.18 in 10.0 mi Calm Calm - N/A   Clear
1:15 AM 56.5 °F 52.7 °F 87% 30.18 in 10.0 mi Calm Calm - N/A   Clear
1:16 AM 56.5 °F 52.9 °F 88% 30.18 in 10.0 mi Calm Calm - N/A   Clear
1:35 AM 57.4 °F 54.1 °F 89% 30.18 in 10.0 mi Calm Calm - N/A   Clear
1:40 AM 57.4 °F 53.6 °F 87% 30.18 in 10.0 mi Calm Calm - N/A   Clear
1:58 AM 56.7 °F 54.0 °F 91% 30.18 in 10.0 mi Calm Calm - N/A   Clear
2:16 AM 56.3 °F 50.9 °F 82% 30.18 in 10.0 mi Calm Calm - N/A   Clear
2:35 AM 56.1 °F 53.6 °F 91% 30.18 in 10.0 mi Calm Calm - N/A   Clear
2:55 AM 55.2 °F 53.1 °F 92% 30.18 in 10.0 mi Calm Calm - N/A   Clear
2:56 AM 55.0 °F 53.1 °F 93% 30.18 in 10.0 mi Calm Calm - N/A   Clear
3:18 AM 54.7 °F 53.6 °F 96% 30.18 in 10.0 mi Calm Calm - N/A   Clear
3:37 AM 54.9 °F 53.2 °F 94% 30.18 in 10.0 mi Calm Calm - N/A   Clear
3:55 AM 54.5 °F 52.9 °F 94% 30.18 in 10.0 mi Calm Calm - N/A   Clear
4:15 AM 54.5 °F 53.6 °F 97% 30.18 in 10.0 mi Calm Calm - N/A   Clear
4:35 AM 54.3 °F 52.7 °F 94% 30.18 in 10.0 mi Calm Calm - N/A   Clear
4:40 AM 53.8 °F 52.2 °F 94% 30.18 in 10.0 mi Calm Calm - N/A   Clear
4:58 AM 53.4 °F 52.7 °F 97% 30.18 in 10.0 mi Calm Calm - N/A   Clear
5:16 AM 53.4 °F 53.1 °F 99% 30.18 in 10.0 mi Calm Calm - N/A   Clear
5:35 AM 53.1 °F 53.1 °F 100% 30.18 in 10.0 mi Calm Calm - N/A   Clear
5:55 AM 53.4 °F 53.1 °F 99% 30.18 in 10.0 mi Calm Calm - N/A   Clear
5:56 AM 53.4 °F 53.2 °F 99% 30.18 in 10.0 mi Calm Calm - N/A   Clear
6:18 AM 53.8 °F 53.8 °F 100% 30.18 in 10.0 mi Calm Calm - N/A   Clear
6:37 AM 53.4 °F 53.1 °F 99% 30.18 in 10.0 mi Calm Calm - N/A   Clear
6:55 AM 53.1 °F 52.5 °F 98% 30.19 in 10.0 mi Calm Calm - N/A   Clear
7:15 AM 53.8 °F 53.4 °F 99% 30.19 in 10.0 mi Calm Calm - N/A   Clear
7:16 AM 54.1 °F 53.6 °F 98% 30.19 in 10.0 mi Calm Calm - N/A   Clear
7:35 AM 57.6 °F 56.7 °F 97% 30.18 in 10.0 mi Calm Calm - N/A   Clear
7:40 AM 58.3 °F 56.8 °F 95% 30.18 in 10.0 mi Calm Calm - N/A   Clear
7:58 AM 60.3 °F 56.5 °F 87% 30.19 in 10.0 mi Calm Calm - N/A   Clear
8:16 AM 62.2 °F 54.0 °F 74% 30.19 in 10.0 mi Calm Calm - N/A   Clear
8:35 AM 63.5 °F 53.6 °F 70% 30.19 in 10.0 mi Calm Calm - N/A   Clear
8:55 AM 65.5 °F 54.1 °F 67% 30.19 in 10.0 mi Calm Calm - N/A   Clear
9:19 AM 69.1 °F 53.1 °F 57% 30.19 in 10.0 mi Calm Calm - N/A   Clear
9:37 AM 70.2 °F 54.0 °F 56% 30.19 in 10.0 mi Calm Calm - N/A   Clear
9:55 AM 71.4 °F 54.1 °F 54% 30.19 in 10.0 mi Calm Calm - N/A   Clear
9:56 AM 71.6 °F 54.1 °F 54% 30.19 in 10.0 mi Calm Calm - N/A   Clear
10:15 AM 72.5 °F 54.5 °F 53% 30.19 in 10.0 mi Calm Calm - N/A   Clear
10:35 AM 74.1 °F 54.5 °F 50% 30.18 in 10.0 mi West 3.5 mph - N/A   Clear
10:58 AM 75.4 °F 54.5 °F 48% 30.18 in 10.0 mi NNE 3.5 mph - N/A   Clear
11:16 AM 75.2 °F 55.4 °F 50% 30.18 in 10.0 mi Calm Calm - N/A   Clear
11:35 AM 77.2 °F 54.7 °F 46% 30.18 in 10.0 mi NW 4.6 mph - N/A   Clear
11:36 AM 77.2 °F 54.7 °F 46% 30.18 in 10.0 mi NW 3.5 mph - N/A   Clear
11:55 AM 77.9 °F 55.6 °F 46% 30.18 in 10.0 mi WNW 4.6 mph - N/A   Clear
11:56 AM 78.3 °F 55.2 °F 45% 30.18 in 10.0 mi WNW 4.6 mph - N/A   Clear
12:19 PM 78.6 °F 53.2 °F 41% 30.18 in 10.0 mi WNW 4.6 mph - N/A   Clear
12:37 PM 79.7 °F 51.6 °F 38% 30.18 in 10.0 mi West 3.5 mph - N/A   Scattered Clouds
12:55 PM 80.1 °F 51.4 °F 37% 30.18 in 10.0 mi WNW 5.8 mph - N/A   Scattered Clouds
1:15 PM 79.3 °F 49.8 °F 36% 30.17 in 10.0 mi Calm Calm - N/A   Clear
1:16 PM 79.3 °F 50.0 °F 36% 30.17 in 10.0 mi Calm Calm - N/A   Clear
1:35 PM 80.6 °F 50.5 °F 35% 30.17 in 10.0 mi North 9.2 mph - N/A   Clear
1:57 PM 81.5 °F 48.6 °F 32% 30.17 in 10.0 mi Calm Calm - N/A   Clear
2:35 PM 81.5 °F 49.5 °F 33% 30.16 in 10.0 mi Calm Calm - N/A   Clear
2:55 PM 81.7 °F 48.6 °F 31% 30.15 in 10.0 mi Calm Calm - N/A   Clear
2:56 PM 81.7 °F 48.7 °F 32% 30.15 in 10.0 mi Calm Calm - N/A   Clear
3:19 PM 82.6 °F 48.0 °F 30% 30.15 in 10.0 mi Calm Calm - N/A   Clear
3:37 PM 82.8 °F 48.4 °F 30% 30.14 in 10.0 mi SW 5.8 mph - N/A   Scattered Clouds
3:55 PM 82.4 °F 47.8 °F 30% 30.13 in 10.0 mi Calm Calm - N/A   Scattered Clouds
4:15 PM 82.0 °F 47.5 °F 30% 30.12 in 10.0 mi NW 4.6 mph - N/A   Clear
4:16 PM 82.4 °F 47.7 °F 30% 30.12 in 10.0 mi WNW 5.8 mph - N/A   Clear
4:35 PM 83.1 °F 47.8 °F 29% 30.11 in 10.0 mi NNE 5.8 mph - N/A   Clear
4:40 PM 82.8 °F 47.7 °F 29% 30.11 in 10.0 mi Calm Calm - N/A   Clear
4:58 PM 82.6 °F 48.0 °F 30% 30.11 in 10.0 mi Calm Calm - N/A   Clear
5:16 PM 83.1 °F 47.8 °F 29% 30.11 in 10.0 mi North 5.8 mph - N/A   Clear
5:35 PM 83.1 °F 47.7 °F 29% 30.11 in 10.0 mi NNE 4.6 mph - N/A   Clear
5:36 PM 82.9 °F 47.8 °F 29% 30.11 in 10.0 mi NNE 5.8 mph - N/A   Clear
5:55 PM 82.6 °F 49.3 °F 31% 30.10 in 10.0 mi Calm Calm - N/A   Clear
5:56 PM 82.8 °F 49.5 °F 31% 30.10 in 10.0 mi Calm Calm - N/A   Clear
6:19 PM 81.9 °F 52.5 °F 36% 30.10 in 10.0 mi West 9.2 mph - N/A   Clear
6:37 PM 80.6 °F 52.2 °F 37% 30.10 in 10.0 mi West 8.1 mph 16.1 mph N/A   Clear
6:55 PM 79.3 °F 52.0 °F 38% 30.10 in 10.0 mi WNW 8.1 mph 19.6 mph N/A   Clear
7:15 PM 79.0 °F 52.3 °F 39% 30.09 in 10.0 mi WNW 8.1 mph - N/A   Clear
7:35 PM 77.5 °F 51.6 °F 40% 30.10 in 10.0 mi WNW 11.5 mph - N/A   Clear
7:39 PM 77.4 °F 51.6 °F 41% 30.10 in 10.0 mi NW 11.5 mph - N/A   Clear
7:58 PM 75.6 °F 52.2 °F 44% 30.11 in 10.0 mi WNW 8.1 mph - N/A   Clear
8:16 PM 73.6 °F 51.8 °F 46% 30.11 in 10.0 mi WNW 8.1 mph - N/A   Clear
8:35 PM 72.5 °F 52.9 °F 50% 30.10 in 10.0 mi NW 4.6 mph - N/A   Clear
8:55 PM 71.6 °F 53.6 °F 53% 30.11 in 10.0 mi WNW 3.5 mph - N/A   Clear
9:19 PM 69.1 °F 54.1 °F 59% 30.11 in 10.0 mi Calm Calm - N/A   Clear
9:37 PM 68.9 °F 54.5 °F 60% 30.11 in 10.0 mi Calm Calm - N/A   Clear
9:55 PM 67.5 °F 54.7 °F 64% 30.12 in 10.0 mi Calm Calm - N/A   Clear
9:56 PM 67.3 °F 54.7 °F 64% 30.12 in 10.0 mi Calm Calm - N/A   Clear
10:15 PM 65.1 °F 55.9 °F 72% 30.12 in 10.0 mi Calm Calm - N/A   Clear
10:35 PM 65.5 °F 55.4 °F 70% 30.12 in 10.0 mi Calm Calm - N/A   Clear
10:40 PM 65.1 °F 55.6 °F 71% 30.12 in 10.0 mi Calm Calm - N/A   Clear
10:57 PM 64.4 °F 55.4 °F 73% 30.11 in 10.0 mi Calm Calm - N/A   Clear
11:16 PM 63.9 °F 55.6 °F 74% 30.11 in 10.0 mi Calm Calm - N/A   Clear
11:35 PM 63.3 °F 55.6 °F 76% 30.11 in 10.0 mi Calm Calm - N/A   Clear
11:55 PM 62.1 °F 55.4 °F 79% 30.11 in 10.0 mi Calm Calm - N/A   Clear
11:56 PM 61.9 °F 55.4 °F 79% 30.11 in 10.0 mi Calm Calm - N/A   Clear